When you browse on this site, cookies collect data to enhance your experience and personalize the content and advertising you see.
Visit our Privacy Policy to learn more. By continuing to use the site, you agree to this use of cookies and data.
  • Em Portugal
  • Lista de países
  • Para 7 dias
  • Temperatura da água
  • Mapas de satélite
  • Mapa do tempo
  • Widgets de tempo
  • user-avatar
    Iniciar Sessão

    Previsão horária em Vrush

    Hoje, 19 Junho, Quarta-feira

    Tempo Temperatura Precipitação Vento Pressão Humidade
    00:00 +10°C° 0 mm 0 m/s 606 mmHg 91%
    01:00 +11°C° 0 mm 1 m/s 606 mmHg 91%
    02:00 +11°C° 0 mm 1 m/s 606 mmHg 90%
    03:00 +11°C° 0 mm 1 m/s 605 mmHg 89%
    04:00 +12°C° 0 mm 1 m/s 606 mmHg 86%
    05:00 +12°C° 0 mm 0 m/s 607 mmHg 82%
    06:00 +14°C° 0 mm 0 m/s 607 mmHg 79%
    07:00 +16°C° 0.4 mm 1 m/s 608 mmHg 78%
    08:00 +18°C° 0.4 mm 1 m/s 608 mmHg 76%
    09:00 +18°C° 0.4 mm 2 m/s 608 mmHg 75%
    10:00 +18°C° 1.4 mm 2 m/s 608 mmHg 76%
    11:00 +18°C° 1.4 mm 2 m/s 608 mmHg 78%
    12:00 +18°C° 1.4 mm 2 m/s 608 mmHg 79%
    13:00 +17°C° 2.4 mm 2 m/s 608 mmHg 81%
    14:00 +16°C° 2.4 mm 1 m/s 607 mmHg 84%
    15:00 +16°C° 2.4 mm 1 m/s 607 mmHg 86%
    16:00 +16°C° 1.2 mm 1 m/s 607 mmHg 86%
    17:00 +15°C° 1.2 mm 1 m/s 607 mmHg 87%
    18:00 +15°C° 1.2 mm 1 m/s 607 mmHg 87%
    19:00 +14°C° 0 mm 1 m/s 607 mmHg 87%
    20:00 +14°C° 0 mm 1 m/s 606 mmHg 87%
    21:00 +13°C° 0 mm 1 m/s 606 mmHg 87%
    22:00 +12°C° 0 mm 1 m/s 606 mmHg 87%
    23:00 +12°C° 0 mm 1 m/s 606 mmHg 87%

    Amanhã, 20 Junho, Quinta-feira

    Tempo Temperatura Precipitação Vento Pressão Humidade
    00:00 +12°C° 0 mm 1 m/s 606 mmHg 86%
    01:00 +11°C° 0 mm 1 m/s 606 mmHg 87%
    02:00 +11°C° 0 mm 1 m/s 605 mmHg 88%
    03:00 +11°C° 0 mm 1 m/s 605 mmHg 89%
    04:00 +12°C° 0 mm 1 m/s 606 mmHg 87%
    05:00 +13°C° 0 mm 1 m/s 606 mmHg 85%
    06:00 +15°C° 0 mm 1 m/s 607 mmHg 82%
    07:00 +16°C° 0.1 mm 1 m/s 608 mmHg 78%
    08:00 +18°C° 0.1 mm 1 m/s 608 mmHg 74%
    09:00 +19°C° 0.1 mm 2 m/s 609 mmHg 70%
    10:00 +19°C° 0.9 mm 2 m/s 608 mmHg 70%
    11:00 +19°C° 0.9 mm 2 m/s 608 mmHg 71%
    12:00 +19°C° 0.9 mm 2 m/s 608 mmHg 72%
    13:00 +19°C° 0.9 mm 2 m/s 608 mmHg 70%
    14:00 +19°C° 0.9 mm 2 m/s 608 mmHg 69%
    15:00 +20°C° 0.9 mm 2 m/s 608 mmHg 67%
    16:00 +19°C° 0.3 mm 2 m/s 607 mmHg 69%
    17:00 +18°C° 0.3 mm 2 m/s 607 mmHg 71%
    18:00 +18°C° 0.3 mm 2 m/s 607 mmHg 73%
    19:00 +16°C° 0 mm 1 m/s 606 mmHg 77%
    20:00 +14°C° 0 mm 1 m/s 606 mmHg 82%
    21:00 +11°C° 0 mm 0 m/s 605 mmHg 86%
    22:00 +11°C° 0 mm 0 m/s 605 mmHg 86%
    23:00 +12°C° 0 mm 1 m/s 605 mmHg 85%

    Depois de amanhã, 21 Junho, Sexta-feira

    Tempo Temperatura Precipitação Vento Pressão Humidade
    00:00 +12°C° 0 mm 1 m/s 605 mmHg 85%
    01:00 +11°C° 0 mm 1 m/s 605 mmHg 84%
    02:00 +11°C° 0 mm 1 m/s 605 mmHg 84%
    03:00 +11°C° 0 mm 1 m/s 605 mmHg 84%
    04:00 +12°C° 0 mm 1 m/s 605 mmHg 83%
    05:00 +13°C° 0 mm 1 m/s 606 mmHg 82%
    06:00 +14°C° 0 mm 1 m/s 607 mmHg 80%
    07:00 +16°C° 0 mm 1 m/s 607 mmHg 75%
    08:00 +17°C° 0 mm 2 m/s 608 mmHg 69%
    09:00 +18°C° 0 mm 2 m/s 609 mmHg 63%
    10:00 +18°C° 0.5 mm 2 m/s 609 mmHg 64%
    11:00 +19°C° 0.5 mm 2 m/s 609 mmHg 65%
    12:00 +19°C° 0.5 mm 2 m/s 609 mmHg 66%
    13:00 +19°C° 0.8 mm 2 m/s 609 mmHg 69%
    14:00 +18°C° 0.8 mm 2 m/s 608 mmHg 71%
    15:00 +18°C° 0.8 mm 2 m/s 608 mmHg 74%
    16:00 +17°C° 0.5 mm 2 m/s 608 mmHg 76%
    17:00 +17°C° 0.5 mm 2 m/s 608 mmHg 79%
    18:00 +16°C° 0.5 mm 1 m/s 608 mmHg 81%
    19:00 +15°C° 0 mm 1 m/s 607 mmHg 84%
    20:00 +14°C° 0 mm 1 m/s 607 mmHg 87%
    21:00 +13°C° 0 mm 1 m/s 607 mmHg 90%
    22:00 +12°C° 0 mm 1 m/s 607 mmHg 89%
    23:00 +12°C° 0 mm 1 m/s 606 mmHg 88%

    22 Junho, Sábado

    Tempo Temperatura Precipitação Vento Pressão Humidade
    00:00 +11°C° 0 mm 1 m/s 606 mmHg 88%
    01:00 +11°C° 0 mm 1 m/s 606 mmHg 86%
    02:00 +11°C° 0 mm 1 m/s 606 mmHg 84%
    03:00 +10°C° 0 mm 1 m/s 606 mmHg 82%
    04:00 +12°C° 0 mm 1 m/s 607 mmHg 79%
    05:00 +13°C° 0 mm 1 m/s 607 mmHg 75%
    06:00 +14°C° 0 mm 1 m/s 608 mmHg 71%
    07:00 +16°C° 0 mm 1 m/s 609 mmHg 67%
    08:00 +19°C° 0 mm 1 m/s 610 mmHg 64%
    09:00 +20°C° 0 mm 1 m/s 610 mmHg 60%
    10:00 +20°C° 0.7 mm 2 m/s 610 mmHg 62%
    11:00 +20°C° 0.7 mm 2 m/s 610 mmHg 65%
    12:00 +21°C° 0.7 mm 2 m/s 611 mmHg 67%
    13:00 +20°C° 1.3 mm 2 m/s 610 mmHg 69%
    14:00 +19°C° 1.3 mm 2 m/s 609 mmHg 72%
    15:00 +20°C° 1.3 mm 1 m/s 609 mmHg 76%
    16:00 +20°C° 1.1 mm 1 m/s 609 mmHg 77%
    17:00 +20°C° 1.1 mm 1 m/s 609 mmHg 78%
    18:00 +19°C° 1.1 mm 1 m/s 609 mmHg 79%
    19:00 +18°C° 0.4 mm 1 m/s 608 mmHg 82%
    20:00 +15°C° 0.4 mm 1 m/s 608 mmHg 85%
    21:00 +12°C° 0.4 mm 0 m/s 608 mmHg 88%
    22:00 +13°C° 0 mm 1 m/s 608 mmHg 88%
    23:00 +13°C° 0 mm 1 m/s 607 mmHg 88%

    23 Junho, Domingo

    Tempo Temperatura Precipitação Vento Pressão Humidade
    00:00 +13°C° 0 mm 1 m/s 607 mmHg 88%
    01:00 +13°C° 0 mm 1 m/s 607 mmHg 87%
    02:00 +13°C° 0 mm 1 m/s 607 mmHg 87%
    03:00 +12°C° 0 mm 1 m/s 607 mmHg 86%
    04:00 +14°C° 0 mm 1 m/s 608 mmHg 82%
    05:00 +15°C° 0 mm 1 m/s 609 mmHg 78%
    06:00 +18°C° 0 mm 1 m/s 609 mmHg 75%
    07:00 +19°C° 0.3 mm 1 m/s 610 mmHg 72%
    08:00 +20°C° 0.3 mm 1 m/s 610 mmHg 69%
    09:00 +20°C° 0.3 mm 2 m/s 611 mmHg 66%
    10:00 +21°C° 1.5 mm 2 m/s 611 mmHg 66%
    11:00 +21°C° 1.5 mm 2 m/s 611 mmHg 67%
    12:00 +21°C° 1.5 mm 2 m/s 611 mmHg 67%
    13:00 +21°C° 1.2 mm 2 m/s 610 mmHg 68%
    14:00 +21°C° 1.2 mm 2 m/s 610 mmHg 69%
    15:00 +22°C° 1.2 mm 1 m/s 610 mmHg 70%
    16:00 +21°C° 0.9 mm 1 m/s 610 mmHg 72%
    17:00 +21°C° 0.9 mm 1 m/s 610 mmHg 74%
    18:00 +21°C° 0.9 mm 1 m/s 609 mmHg 76%
    19:00 +19°C° 0.3 mm 1 m/s 609 mmHg 79%
    20:00 +16°C° 0.3 mm 1 m/s 608 mmHg 82%
    21:00 +13°C° 0.3 mm 0 m/s 608 mmHg 85%
    22:00 +14°C° 0 mm 1 m/s 608 mmHg 84%
    23:00 +14°C° 0 mm 1 m/s 608 mmHg 84%

    24 Junho, Segunda-feira

    Tempo Temperatura Precipitação Vento Pressão Humidade
    00:00 +14°C° 0 mm 1 m/s 608 mmHg 84%
    01:00 +14°C° 0 mm 1 m/s 607 mmHg 84%
    02:00 +13°C° 0 mm 1 m/s 607 mmHg 84%
    03:00 +13°C° 0 mm 1 m/s 607 mmHg 84%
    04:00 +15°C° 0 mm 1 m/s 608 mmHg 82%
    05:00 +16°C° 0 mm 1 m/s 609 mmHg 79%
    06:00 +18°C° 0 mm 1 m/s 609 mmHg 77%
    07:00 +19°C° 0.6 mm 1 m/s 610 mmHg 74%
    08:00 +20°C° 0.6 mm 1 m/s 610 mmHg 71%
    09:00 +20°C° 0.6 mm 2 m/s 611 mmHg 69%
    10:00 +21°C° 1.9 mm 2 m/s 611 mmHg 68%
    11:00 +21°C° 1.9 mm 2 m/s 610 mmHg 68%
    12:00 +21°C° 1.9 mm 2 m/s 610 mmHg 67%
    13:00 +21°C° 1.5 mm 2 m/s 610 mmHg 67%
    14:00 +21°C° 1.5 mm 2 m/s 610 mmHg 67%
    15:00 +21°C° 1.5 mm 2 m/s 610 mmHg 67%
    16:00 +21°C° 1.3 mm 2 m/s 610 mmHg 70%
    17:00 +20°C° 1.3 mm 2 m/s 609 mmHg 74%
    18:00 +19°C° 1.3 mm 2 m/s 609 mmHg 77%
    19:00 +19°C° 0.5 mm 1 m/s 609 mmHg 80%
    20:00 +16°C° 0.5 mm 1 m/s 608 mmHg 83%
    21:00 +15°C° 0.5 mm 1 m/s 608 mmHg 86%
    22:00 +15°C° 0.2 mm 1 m/s 608 mmHg 85%
    23:00 +15°C° 0.2 mm 1 m/s 608 mmHg 85%
    Mostrar mais